Weather History for Falfurrias, TX

Change the Weather History Date:

Wednesday, November 14, 2012

  Actual Average (KNQI) Record (KNQI)
Temperature  
Mean Temperature 64 °F -  
Max Temperature 69 °F 74 °F 87 °F (2006)
Min Temperature 59 °F 55 °F 39 °F (2013)
Degree Days  
Heating Degree Days 1    
Growing Degree Days 14 (Base 50)    
Moisture  
Dew Point 38 °F    
Average Humidity 39    
Maximum Humidity 49    
Minimum Humidity 28    
Precipitation  
Precipitation 0.00 in - - ()
Sea Level Pressure  
Sea Level Pressure 30.31 in    
Wind  
Wind Speed 6 mph (NNE)    
Max Wind Speed 12 mph    
Max Gust Speed -    
Visibility 10 miles    
Events      
Averages and records for this station are not official NWS values.
T = Trace of Precipitation, MM = Missing Value Source: NWS Daily Summary

Daily Weather History Graph

Daily Weather History Graph

Search for Another Location

Airport:

Trip Planner

Search our weather history database for the weather conditions in past years. The results will help you decide how hot, cold, wet, or windy it might be!

Date:

Astronomy

Nov. 14, 2012 Rise Set
Actual Time 6:52 AM CST 5:41 PM CST
Civil Twilight 6:27 AM CST 6:05 PM CST
Nautical Twilight 5:59 AM CST 6:34 PM CST
Astronomical Twilight 5:31 AM CST 7:01 PM CST
Moon 7:38 AM CST (11/14) 6:36 PM CST (11/14)
Length of Visible Light 11h 38m
Length of Day
10h 49m
New Moon, 1% of the Moon is Illuminated
Nov 14
New Moon
Nov 20
First Quarter
Nov 28
Full
Dec 6
Last Quarter
Dec 13
New

Hourly Weather History & Observations

Time (CST) Temp. Dew Point Humidity Pressure Visibility Wind Dir Wind Speed Gust Speed Precip Events Conditions
12:15 AM 59.2 °F 39.7 °F 49% 30.31 in 10.0 mi NNE 6.9 mph - N/A   Overcast
12:55 AM 59.5 °F 39.6 °F 48% 30.31 in 10.0 mi NNE 5.8 mph - N/A   Overcast
1:15 AM 59.5 °F 38.8 °F 46% 30.31 in 10.0 mi NNE 8.1 mph - N/A   Overcast
1:35 AM 59.5 °F 38.3 °F 45% 30.31 in 10.0 mi NNE 8.1 mph - N/A   Overcast
1:55 AM 59.9 °F 38.5 °F 45% 30.30 in 10.0 mi NNE 8.1 mph - N/A   Overcast
2:15 AM 59.9 °F 39.2 °F 46% 30.30 in 10.0 mi NNE 9.2 mph - N/A   Overcast
2:35 AM 59.9 °F 39.6 °F 47% 30.30 in 10.0 mi NNE 8.1 mph - N/A   Overcast
2:55 AM 59.9 °F 40.1 °F 48% 30.30 in 10.0 mi NNE 11.5 mph - N/A   Overcast
3:15 AM 59.9 °F 40.1 °F 48% 30.30 in 10.0 mi NNE 8.1 mph - N/A   Overcast
3:35 AM 59.9 °F 39.7 °F 47% 30.30 in 10.0 mi NNE 10.4 mph - N/A   Overcast
3:55 AM 60.1 °F 39.2 °F 46% 30.31 in 10.0 mi NE 8.1 mph - N/A   Overcast
4:15 AM 60.1 °F 39.2 °F 46% 30.31 in 10.0 mi NNE 5.8 mph - N/A   Overcast
4:35 AM 60.3 °F 39.6 °F 46% 30.31 in 10.0 mi NNE 6.9 mph - N/A   Overcast
4:55 AM 60.3 °F 39.6 °F 46% 30.31 in 10.0 mi NNE 6.9 mph - N/A   Overcast
5:15 AM 60.3 °F 39.7 °F 47% 30.31 in 10.0 mi NNE 8.1 mph - N/A   Overcast
5:35 AM 60.3 °F 39.0 °F 45% 30.31 in 10.0 mi NNE 8.1 mph - N/A   Overcast
5:55 AM 60.1 °F 37.8 °F 44% 30.31 in 10.0 mi NNE 9.2 mph - N/A   Overcast
6:15 AM 60.1 °F 37.2 °F 43% 30.32 in 10.0 mi NNE 8.1 mph - N/A   Overcast
6:35 AM 60.1 °F 37.0 °F 42% 30.32 in 10.0 mi NNE 9.2 mph - N/A   Overcast
6:55 AM 60.1 °F 36.9 °F 42% 30.32 in 10.0 mi NNE 6.9 mph - N/A   Overcast
7:15 AM 59.9 °F 36.9 °F 42% 30.33 in 10.0 mi NNE 5.8 mph - N/A   Overcast
7:35 AM 59.9 °F 37.4 °F 43% 30.34 in 10.0 mi Calm Calm - N/A   Overcast
7:55 AM 60.1 °F 37.6 °F 43% 30.35 in 10.0 mi Calm Calm - N/A   Overcast
8:15 AM 60.4 °F 38.5 °F 44% 30.35 in 10.0 mi Calm Calm - N/A   Overcast
8:35 AM 61.0 °F 39.4 °F 45% 30.35 in 10.0 mi Calm Calm - N/A   Overcast
8:55 AM 61.3 °F 39.7 °F 45% 30.37 in 10.0 mi NNE 4.6 mph - N/A   Overcast
9:15 AM 61.7 °F 39.6 °F 44% 30.37 in 10.0 mi North 6.9 mph - N/A   Overcast
9:55 AM 62.6 °F 40.5 °F 44% 30.38 in 10.0 mi North 6.9 mph - N/A   Overcast
10:15 AM 63.1 °F 41.0 °F 44% 30.38 in 10.0 mi NNE 8.1 mph - N/A   Overcast
10:35 AM 63.7 °F 41.2 °F 44% 30.38 in 10.0 mi NNE 5.8 mph - N/A   Overcast
10:55 AM 64.4 °F 41.9 °F 44% 30.38 in 10.0 mi North 8.1 mph - N/A   Overcast
11:15 AM 65.1 °F 42.1 °F 43% 30.37 in 10.0 mi North 5.8 mph - N/A   Overcast
11:35 AM 65.3 °F 42.3 °F 43% 30.36 in 10.0 mi North 6.9 mph - N/A   Overcast
12:15 PM 66.2 °F 40.8 °F 40% 30.35 in 10.0 mi NNE 5.8 mph - N/A   Overcast
12:35 PM 66.9 °F 40.8 °F 39% 30.34 in 10.0 mi North 4.6 mph - N/A   Overcast
12:55 PM 67.6 °F 38.8 °F 35% 30.33 in 10.0 mi NNE 6.9 mph - N/A   Overcast
1:15 PM 67.8 °F 35.8 °F 31% 30.32 in 10.0 mi NNE 5.8 mph - N/A   Overcast
1:35 PM 68.2 °F 37.2 °F 32% 30.32 in 10.0 mi North 9.2 mph - N/A   Overcast
1:55 PM 68.4 °F 36.3 °F 31% 30.31 in 10.0 mi North 5.8 mph - N/A   Overcast
2:15 PM 69.1 °F 36.3 °F 30% 30.30 in 10.0 mi North 6.9 mph - N/A   Overcast
2:55 PM 68.9 °F 36.5 °F 30% 30.29 in 10.0 mi NNE 5.8 mph - N/A   Overcast
3:15 PM 68.7 °F 37.0 °F 31% 30.29 in 10.0 mi North 6.9 mph - N/A   Overcast
3:35 PM 68.4 °F 36.3 °F 31% 30.28 in 10.0 mi NNE 8.1 mph - N/A   Overcast
3:55 PM 68.2 °F 35.8 °F 30% 30.28 in 10.0 mi NE 8.1 mph - N/A   Overcast
4:15 PM 68.0 °F 35.2 °F 30% 30.28 in 10.0 mi NNE 5.8 mph - N/A   Overcast
4:35 PM 68.0 °F 34.3 °F 29% 30.28 in 10.0 mi NNE 5.8 mph - N/A   Overcast
4:55 PM 68.0 °F 33.6 °F 28% 30.28 in 10.0 mi NNE 5.8 mph - N/A   Overcast
5:15 PM 67.6 °F 33.1 °F 28% 30.28 in 10.0 mi NNE 4.6 mph - N/A   Overcast
5:35 PM 67.5 °F 33.8 °F 29% 30.28 in 10.0 mi NE 4.6 mph - N/A   Overcast
5:55 PM 67.1 °F 34.7 °F 30% 30.28 in 10.0 mi NE 4.6 mph - N/A   Overcast
6:15 PM 67.1 °F 34.9 °F 30% 30.28 in 10.0 mi Calm Calm - N/A   Overcast
6:35 PM 66.7 °F 34.7 °F 31% 30.29 in 10.0 mi NE 4.6 mph - N/A   Overcast
6:55 PM 67.1 °F 34.7 °F 30% 30.30 in 10.0 mi NE 5.8 mph - N/A   Overcast
7:15 PM 66.6 °F 35.1 °F 31% 30.30 in 10.0 mi NE 4.6 mph - N/A   Overcast
7:35 PM 66.2 °F 35.4 °F 32% 30.30 in 10.0 mi ENE 4.6 mph - N/A   Overcast
7:55 PM 66.2 °F 35.8 °F 32% 30.30 in 10.0 mi ENE 5.8 mph - N/A   Overcast
8:15 PM 65.8 °F 36.5 °F 34% 30.30 in 10.0 mi East 4.6 mph - N/A   Overcast
8:35 PM 65.7 °F 37.0 °F 35% 30.31 in 10.0 mi ENE 4.6 mph - N/A   Overcast
8:55 PM 65.3 °F 37.9 °F 36% 30.31 in 10.0 mi Calm Calm - N/A   Overcast
9:15 PM 65.3 °F 38.3 °F 37% 30.31 in 10.0 mi Calm Calm - N/A   Overcast
9:35 PM 64.9 °F 39.6 °F 39% 30.31 in 10.0 mi Calm Calm - N/A   Overcast
9:55 PM 64.8 °F 39.6 °F 40% 30.31 in 10.0 mi Calm Calm - N/A   Overcast
10:15 PM 64.6 °F 39.4 °F 40% 30.31 in 10.0 mi Calm Calm - N/A   Overcast
10:35 PM 64.6 °F 39.7 °F 40% 30.30 in 10.0 mi Calm Calm - N/A   Overcast
10:55 PM 64.6 °F 40.8 °F 42% 30.30 in 10.0 mi Calm Calm - N/A   Overcast
11:15 PM 64.4 °F 39.6 °F 40% 30.29 in 10.0 mi Calm Calm - N/A   Overcast
11:35 PM 64.4 °F 39.9 °F 41% 30.29 in 10.0 mi Calm Calm - N/A   Overcast
11:55 PM 64.4 °F 40.5 °F 41% 30.28 in 10.0 mi Calm Calm - N/A   Overcast